Location: Arbon
(43.0005°N, 0.7472°E)
Time: 22:22:18
(UTC+00:00)

Explorer 7 - Pass Details

Date: 05 December 2020
Orbit: 484 x 678 km, 50.3° (Epoch: 25 January)

Event Time Altitude Azimuth Distance (km) Brightness Sun altitude
Rises 01:40:28 0° 276° (W) 2,955 - -58.8°
Reaches altitude 10° 01:43:03 10° 286° (WNW) 2,017 - -58.5°
Maximum altitude 01:47:16 34° 351° (N) 1,019 - -57.8°
Drops below altitude 10° 01:51:16 10° 57° (ENE) 1,908 - -57.2°
Sets 01:53:39 0° 67° (ENE) 2,772 - -56.8°
